Florien, LA

6:55 AM CST on February 24, 2017 (GMT -0600)
Fort Polk

Weather History for KAQV - June, 2014

Change the Weather History Date:

Friday, June 27, 2014

  Actual Average (KIER) Record (KIER)
Temperature  
Mean Temperature 74 °F -  
Max Temperature 77 °F 91 °F 104 °F (2012)
Min Temperature 71 °F 70 °F 56 °F (1974)
Cooling Degree Days 9    
Growing Degree Days 24 (Base 50)    
Moisture  
Dew Point 70 °F    
Average Humidity 88    
Maximum Humidity 93    
Minimum Humidity 76    
Precipitation  
Precipitation 0.00 in - - ()
Sea Level Pressure  
Sea Level Pressure 29.98 in    
Wind  
Wind Speed 4 mph (SSE)    
Max Wind Speed 9 mph    
Max Gust Speed -    
Visibility 10 miles    
Events Rain , Thunderstorm    
Averages and records for this station are not official NWS values.
T = Trace of Precipitation, MM = Missing Value Source: NWS Daily Summary

Daily Weather History Graph

Daily Weather History Graph

Search for Another Location

Airport or City:

Trip Planner

Search our weather history database for the weather conditions in past years. The results will help you decide how hot, cold, wet, or windy it might be!

Date:

Astronomy

Jun. 27, 2014 Rise Set
Actual Time 6:10 AM CDT 8:21 PM CDT
Civil Twilight 5:42 AM CDT 8:49 PM CDT
Nautical Twilight 5:08 AM CDT 9:23 PM CDT
Astronomical Twilight 4:31 AM CDT 10:00 PM CDT
Moon 6:35 AM CDT (6/27) 8:34 PM CDT (6/27)
Length of Visible Light 15h 06m
Length of Day
14h 10m
New Moon, 0% of the Moon is Illuminated
Jun 27
New Moon
Jul 5
First Quarter
Jul 12
Full
Jul 18
Last Quarter
Jul 26
New

Hourly Weather History & Observations

Time (CDT) Temp. Dew Point Humidity Pressure Visibility Wind Dir Wind Speed Gust Speed Precip Events Conditions
12:56 AM 71.1 °F 69.1 °F 93% 29.99 in 8.0 mi Variable 3.5 mph - N/A   Overcast
1:56 AM 71.1 °F 69.1 °F 93% 29.96 in 9.0 mi Variable 5.8 mph - N/A   Overcast
2:56 AM 71.1 °F 69.1 °F 93% 29.95 in 10.0 mi Variable 3.5 mph - N/A   Mostly Cloudy
3:56 AM 71.1 °F 69.1 °F 93% 29.95 in 10.0 mi Variable 3.5 mph - N/A   Mostly Cloudy
4:06 AM 71.1 °F 69.1 °F 93% 29.95 in 10.0 mi Variable 3.5 mph - N/A   Scattered Clouds
4:56 AM 71.1 °F 69.1 °F 93% 29.94 in 10.0 mi Variable 5.8 mph - N/A   Mostly Cloudy
5:56 AM 72.0 °F 70.0 °F 93% 29.95 in 10.0 mi Calm Calm - N/A   Overcast
6:49 AM 72.0 °F 70.0 °F 93% 29.97 in 10.0 mi Calm Calm - N/A   Overcast
6:56 AM 72.0 °F 70.0 °F 93% 29.96 in 10.0 mi Calm Calm - N/A   Overcast
7:56 AM 73.0 °F 71.1 °F 93% 29.98 in 10.0 mi Variable 3.5 mph - N/A   Overcast
8:56 AM 73.9 °F 71.1 °F 91% 30.01 in 10.0 mi SSE 4.6 mph - N/A   Overcast
9:15 AM 73.9 °F 71.1 °F 91% 30.02 in 10.0 mi South 6.9 mph - N/A   Overcast
9:56 AM 73.9 °F 70.0 °F 87% 30.02 in 10.0 mi Variable 5.8 mph - N/A   Overcast
10:56 AM 75.0 °F 70.0 °F 84% 30.03 in 9.0 mi SSE 8.1 mph - N/A Rain Light Rain
11:56 AM 77.0 °F 72.0 °F 84% 30.02 in 10.0 mi SSE 6.9 mph - N/A Rain Light Rain
12:56 PM 75.9 °F 71.1 °F 85% 30.02 in 10.0 mi Variable 3.5 mph - N/A   Overcast
1:56 PM 77.0 °F 71.1 °F 82% 29.99 in 10.0 mi Variable 6.9 mph - N/A   Scattered Clouds
2:56 PM 75.9 °F 71.1 °F 85% 29.99 in 10.0 mi SSE 9.2 mph - N/A   Scattered Clouds
3:56 PM 77.0 °F 71.1 °F 82% 29.99 in 10.0 mi North - - N/A   Mostly Cloudy
4:30 PM 75.9 °F 71.1 °F 85% 29.99 in 10.0 mi Variable 6.9 mph - N/A Thunderstorm Thunderstorm
4:41 PM 75.0 °F 71.1 °F 87% 30.00 in 10.0 mi Variable 6.9 mph - N/A Thunderstorm Thunderstorm
4:50 PM 75.2 °F 71.6 °F 89% 30.00 in 10.0 mi South 8.1 mph - N/A   Mostly Cloudy
4:56 PM 75.0 °F 71.1 °F 87% 29.99 in 10.0 mi SSE 8.1 mph - N/A   Mostly Cloudy
5:15 PM 73.9 °F 70.0 °F 87% 30.00 in 10.0 mi Variable 6.9 mph - N/A   Scattered Clouds
5:56 PM 73.9 °F 68.0 °F 82% 29.96 in 10.0 mi Variable 5.8 mph - N/A   Clear
6:56 PM 75.9 °F 68.0 °F 76% 29.96 in 10.0 mi South 5.8 mph - N/A   Clear
7:56 PM 73.9 °F 69.1 °F 85% 29.95 in 10.0 mi Variable 3.5 mph - N/A   Clear
8:56 PM 73.0 °F 70.0 °F 90% 29.96 in 10.0 mi Calm Calm - N/A   Clear
9:56 PM 72.0 °F 70.0 °F 93% 29.97 in 10.0 mi Calm Calm - N/A   Clear
10:56 PM 73.0 °F 69.1 °F 87% 29.97 in 10.0 mi Variable 4.6 mph - N/A   Clear
11:56 PM 72.0 °F 69.1 °F 91% 29.98 in 10.0 mi Variable 5.8 mph - N/A   Clear